TimeMST,TemperatureF,Dew PointF,Humidity,Sea Level PressureIn,VisibilityMPH,Wind Direction,Wind SpeedMPH,Gust SpeedMPH,PrecipitationIn,Events,Conditions,WindDirDegrees,DateUTC
12:15 AM,-2.2,-7.6,78,30.09,10.0,WSW,4.6,-,N/A,,Mostly Cloudy,240,2014-02-12 07:15:00
12:35 AM,-2.2,-4.0,92,30.08,10.0,Calm,Calm,-,N/A,,Mostly Cloudy,0,2014-02-12 07:35:00
12:55 AM,1.4,1.4,100,30.07,10.0,SW,5.8,-,N/A,,Scattered Clouds,230,2014-02-12 07:55:00
1:15 AM,-0.4,-2.2,92,30.06,10.0,SW,5.8,-,N/A,,Clear,230,2014-02-12 08:15:00
1:35 AM,-0.4,-7.6,72,30.05,10.0,SW,5.8,-,N/A,,Clear,220,2014-02-12 08:35:00
1:55 AM,1.4,-0.4,92,30.05,10.0,Calm,Calm,-,N/A,,Clear,0,2014-02-12 08:55:00
2:15 AM,-0.4,-4.0,85,30.06,10.0,NNE,3.5,-,N/A,,Clear,20,2014-02-12 09:15:00
2:35 AM,-0.4,-9.4,66,30.06,10.0,NNE,4.6,-,N/A,,Mostly Cloudy,30,2014-02-12 09:35:00
2:55 AM,1.4,-0.4,92,30.05,10.0,Calm,Calm,-,N/A,,Overcast,0,2014-02-12 09:55:00
3:15 AM,1.4,1.4,100,30.04,10.0,Calm,Calm,-,N/A,,Overcast,0,2014-02-12 10:15:00
3:35 AM,1.4,-0.4,92,30.02,10.0,Calm,Calm,-,N/A,,Overcast,0,2014-02-12 10:35:00
3:55 AM,1.4,-2.2,85,30.01,10.0,East,3.5,-,N/A,,Overcast,100,2014-02-12 10:55:00
4:15 AM,1.4,-0.4,92,29.99,8.0,ENE,3.5,-,N/A,,Overcast,60,2014-02-12 11:15:00
4:35 AM,1.4,-0.4,92,29.98,3.0,NE,3.5,-,N/A,,Overcast,50,2014-02-12 11:35:00
4:55 AM,3.2,-0.4,85,29.97,0.8,Calm,Calm,-,N/A,,Overcast,0,2014-02-12 11:55:00
5:15 AM,3.2,-0.4,85,29.95,0.5,Calm,Calm,-,N/A,,Overcast,0,2014-02-12 12:15:00
5:35 AM,3.2,1.4,92,29.94,0.5,Calm,Calm,-,N/A,,Overcast,0,2014-02-12 12:35:00
5:55 AM,5.0,3.2,92,29.91,0.5,Calm,Calm,-,N/A,,Overcast,0,2014-02-12 12:55:00
6:15 AM,5.0,1.4,85,29.89,0.5,Calm,Calm,-,N/A,,Overcast,0,2014-02-12 13:15:00
6:35 AM,6.8,1.4,79,29.88,0.5,Calm,Calm,-,N/A,,Overcast,0,2014-02-12 13:35:00
6:55 AM,6.8,3.2,85,29.86,0.5,Calm,Calm,-,N/A,,Overcast,0,2014-02-12 13:55:00
7:15 AM,6.8,3.2,85,29.85,0.2,Calm,Calm,-,N/A,,Overcast,0,2014-02-12 14:15:00
7:35 AM,6.8,3.2,85,29.83,0.2,Calm,Calm,-,N/A,,Overcast,0,2014-02-12 14:35:00
7:55 AM,8.6,5.0,85,29.82,0.2,Calm,Calm,-,N/A,,Overcast,0,2014-02-12 14:55:00
8:15 AM,8.6,6.8,92,29.80,0.2,Calm,Calm,-,N/A,,Overcast,0,2014-02-12 15:15:00
8:35 AM,10.4,6.8,85,29.79,0.2,Calm,Calm,-,N/A,,Overcast,0,2014-02-12 15:35:00
8:55 AM,10.4,8.6,92,29.76,0.2,Calm,Calm,-,N/A,,Overcast,0,2014-02-12 15:55:00
9:15 AM,12.2,10.4,92,29.75,0.2,Calm,Calm,-,N/A,,Overcast,0,2014-02-12 16:15:00
9:35 AM,12.2,10.4,92,29.73,0.2,Calm,Calm,-,N/A,,Overcast,0,2014-02-12 16:35:00
9:55 AM,15.8,12.2,86,29.71,1.2,Calm,Calm,-,N/A,,Mostly Cloudy,0,2014-02-12 16:55:00
10:15 AM,15.8,12.2,86,29.69,7.0,Calm,Calm,-,N/A,,Clear,0,2014-02-12 17:15:00
10:35 AM,15.8,15.8,100,29.67,10.0,Calm,Calm,-,N/A,,Clear,0,2014-02-12 17:35:00
10:55 AM,19.4,17.6,93,29.64,10.0,SSE,4.6,-,N/A,,Clear,150,2014-02-12 17:55:00
11:15 AM,19.4,17.6,93,29.61,10.0,SSE,5.8,-,N/A,,Clear,160,2014-02-12 18:15:00
11:35 AM,21.2,19.4,93,29.57,10.0,South,9.2,-,N/A,,Clear,180,2014-02-12 18:35:00
11:55 AM,24.8,24.8,100,29.55,10.0,South,13.8,-,N/A,,Clear,190,2014-02-12 18:55:00
12:15 PM,26.6,21.2,80,29.53,10.0,South,13.8,-,N/A,,Clear,190,2014-02-12 19:15:00
12:35 PM,26.6,23.0,86,29.51,10.0,South,11.5,-,N/A,,Clear,180,2014-02-12 19:35:00
12:55 PM,26.6,21.2,80,29.49,10.0,South,6.9,-,N/A,,Partly Cloudy,180,2014-02-12 19:55:00
1:15 PM,28.4,26.6,93,29.48,10.0,SSW,12.7,-,N/A,,Mostly Cloudy,200,2014-02-12 20:15:00
1:35 PM,28.4,24.8,86,29.46,10.0,SSW,12.7,-,N/A,,Mostly Cloudy,200,2014-02-12 20:35:00
1:55 PM,30.2,24.8,80,29.44,10.0,SSW,13.8,19.6,N/A,,Mostly Cloudy,200,2014-02-12 20:55:00
2:15 PM,30.2,24.8,80,29.41,10.0,SSW,13.8,-,N/A,,Mostly Cloudy,200,2014-02-12 21:15:00
2:35 PM,32.0,24.8,75,29.40,10.0,SSW,12.7,-,N/A,,Scattered Clouds,200,2014-02-12 21:35:00
2:55 PM,33.8,24.8,70,29.39,10.0,SSW,12.7,-,N/A,,Mostly Cloudy,200,2014-02-12 21:55:00
3:15 PM,33.8,24.8,70,29.37,10.0,SSW,17.3,21.9,N/A,,Mostly Cloudy,200,2014-02-12 22:15:00
3:35 PM,33.8,24.8,70,29.36,10.0,SSW,15.0,-,N/A,,Scattered Clouds,210,2014-02-12 22:35:00
3:55 PM,33.8,24.8,70,29.35,10.0,SW,20.7,-,N/A,,Partly Cloudy,220,2014-02-12 22:55:00
4:15 PM,35.6,24.8,65,29.35,10.0,SSW,18.4,-,N/A,,Clear,210,2014-02-12 23:15:00
4:35 PM,35.6,24.8,65,29.35,10.0,SSW,8.1,-,N/A,,Clear,200,2014-02-12 23:35:00
4:55 PM,33.8,24.8,70,29.35,10.0,SSW,8.1,-,N/A,,Clear,210,2014-02-12 23:55:00
5:15 PM,35.6,24.8,65,29.35,10.0,WSW,18.4,21.9,N/A,,Clear,240,2014-02-13 00:15:00
5:35 PM,35.6,26.6,70,29.36,10.0,WSW,16.1,-,N/A,,Clear,250,2014-02-13 00:35:00
5:55 PM,37.4,28.4,70,29.36,10.0,West,17.3,-,N/A,,Scattered Clouds,260,2014-02-13 00:55:00
6:15 PM,39.2,30.2,70,29.36,10.0,WSW,18.4,25.3,N/A,,Mostly Cloudy,250,2014-02-13 01:15:00
6:35 PM,42.8,30.2,61,29.37,10.0,West,19.6,27.6,N/A,,Mostly Cloudy,260,2014-02-13 01:35:00
6:55 PM,42.8,30.2,61,29.38,10.0,West,19.6,26.5,N/A,,Partly Cloudy,260,2014-02-13 01:55:00
7:35 PM,39.2,30.2,70,29.40,10.0,West,19.6,24.2,N/A,,Scattered Clouds,270,2014-02-13 02:35:00
7:55 PM,39.2,30.2,70,29.42,10.0,West,23.0,31.1,N/A,,Mostly Cloudy,280,2014-02-13 02:55:00
8:15 PM,41.0,30.2,65,29.45,10.0,West,23.0,29.9,N/A,,Overcast,280,2014-02-13 03:15:00
8:35 PM,41.0,30.2,65,29.46,10.0,West,24.2,28.8,N/A,,Mostly Cloudy,280,2014-02-13 03:35:00
8:55 PM,39.2,30.2,70,29.47,10.0,West,21.9,32.2,N/A,,Mostly Cloudy,280,2014-02-13 03:55:00
9:15 PM,37.4,30.2,75,29.49,10.0,West,19.6,26.5,N/A,,Partly Cloudy,270,2014-02-13 04:15:00
9:35 PM,37.4,30.2,75,29.49,10.0,West,20.7,28.8,N/A,,Clear,270,2014-02-13 04:35:00
9:55 PM,37.4,28.4,70,29.50,10.0,West,20.7,28.8,N/A,,Clear,270,2014-02-13 04:55:00
10:15 PM,37.4,28.4,70,29.51,10.0,West,26.5,32.2,N/A,,Clear,280,2014-02-13 05:15:00
10:35 PM,35.6,26.6,70,29.53,10.0,West,20.7,31.1,N/A,,Clear,280,2014-02-13 05:35:00
10:55 PM,33.8,24.8,70,29.54,10.0,West,21.9,31.1,N/A,,Clear,280,2014-02-13 05:55:00
11:15 PM,33.8,24.8,70,29.56,10.0,WNW,20.7,27.6,N/A,,Mostly Cloudy,300,2014-02-13 06:15:00
11:35 PM,32.0,23.0,69,29.57,10.0,WNW,21.9,28.8,N/A,,Overcast,290,2014-02-13 06:35:00
11:55 PM,30.2,21.2,69,29.59,10.0,WNW,26.5,33.4,N/A,,Scattered Clouds,290,2014-02-13 06:55:00